Regional Weather Roundup
Issued by NWS Bismarck, ND

Home | Current Version | Previous Version | Text Only | Print | Product List | Glossary On
Versions: 1 2 3 4 5 6 7 8 9 10 11 12 13 14 15 16 17 18 19 20 21 22 23 24 25 26 27 28 29 30 31 32 33 34 35 36 37 38 39 40 41 42 43 44 45 46 47 48 49 50
000
ASUS43 KBIS 050702
RWRBIS

NWR BROADCAST TEXT
NATIONAL WEATHER SERVICE BISMARCK ND
200 AM CDT THU MAY 05 2016

NOTE: "FAIR" INDICATES FEW OR NO CLOUDS BELOW 12,000 FEET WITH NO
SIGNIFICANT WEATHER AND/OR OBSTRUCTIONS TO VISIBILITY.


CITY           SKY/WX    TMP DP  RH WIND       PRES   REMARKS
WILLISTON      CLEAR     63  40  42 S6        29.86S
MINOT          CLEAR     68  42  38 SW12      29.85F
MINOT AFB      CLEAR     61  45  55 SW13      29.83F
BISMARCK       CLEAR     63  45  51 SW10      29.94F
DICKINSON      CLEAR     55  41  59 S13       29.92F
GARRISON         N/A     54  42  64 SW5       29.90S
HETTINGER ARPT CLEAR     55  42  61 S9        29.99S
JAMESTOWN      CLEAR     52  39  61 S9        29.92F
CARRINGTON     FAIR      61  43  51 SW13      29.92F
HAZEN          FAIR      54  43  66 W6        29.93S
OAKES            N/A    N/A N/A N/A MISG        N/A
STANLEY        FAIR      57  41  54 S10       29.90F
$$

CITY           SKY/WX    TMP DP  RH WIND       PRES   REMARKS
GRAND FORKS    CLEAR     54  30  40 S10       29.87F
GRAND FORKS AF PTCLDY    57  28  33 SW12      29.87F
DEVILS LAKE    CLEAR     56  43  61 SW10      29.88F
FARGO          CLEAR     53  29  39 S10       29.93S
CAVALIER       FAIR      55  36  47 S13       29.82F
GRAFTON        FAIR      50  32  50 S8        29.87F
GWINNER        FAIR      52  36  54 SW9       29.96F
LANGDON        FAIR      54  39  58 S14       29.86S
$$

CITY           SKY/WX    TMP DP  RH WIND       PRES   REMARKS
ABERDEEN       CLEAR     46  35  65 S7        29.99S
MOBRIDGE       CLEAR     52  45  77 SE8       29.96F
BUFFALO          N/A     56  44  64 SE8       29.92S
RAPID CITY     CLEAR     50  43  77 SE8       30.01F
GLASGOW        CLOUDY    60  40  47 E12       29.82S
SIDNEY         CLEAR     55  41  58 SW8       29.88R
WOLF POINT     CLEAR     52  43  71 CALM      29.84R
GLENDIVE       CLEAR     61  45  55 S13       29.92F
MILES CITY     CLOUDY    62  43  49 SE13      29.88F
BAKER          CLEAR     60  40  47 S14       29.94S
$$

CITY           SKY/WX    TMP DP  RH WIND       PRES   REMARKS
BILLINGS       PTCLDY    62  41  46 SW15      29.91S
GREAT FALLS    CLOUDY    54  41  61 W5        29.90R
$$





USA.gov is the U.S. government's official web portal to all federal, state and local government web resources and services.